sat.trackr.live / text

‹ back to catalog

STARLINK-5711

NORAD 55471 · 2023-015Y

PAYLOAD ACTIVE UNKNOWN

§ Identity

Operator
Country
US
Launch date
2023-02-02
Launch site
AFETR
Launch vehicle
Mass (kg)
RCS (m²)

Purposes: comms

External: N2YO · Heavens-Above · Gunter

§ Orbital elements

Epoch: 2026-05-24T19:01:07.846752Z

Period
94.27 min
Inclination
43.0026°
Eccentricity
0.0001620
Mean motion
15.27574184 rev/d
Perigee alt
482.0 km
Apogee alt
484.2 km
Semi-major
6,861.2 km
B*
7.1836e-6
RAAN
258.6908°
Arg perigee
265.8104°
Mean anomaly
94.2563°
Rev number
18,236

§ Raw data

STARLINK-57111 55471U 23015Y   26144.79245193 -.00000065  00000+0  71836-5 0  99912 55471  43.0026 258.6908 0001620 265.8104  94.2563 15.27574184182365

JSON: /api/v1/satellites/55471 · /tle

For live sub-satellite position, see the globe view (requires WebGL).

§ Visibility from observer

Set your observer location to see the next 7 days of passes ≥ 10°. The values pass through the URL so the page stays shareable.

No JS? Fill the form by hand. The geolocation button needs JavaScript.